Regional Weather Roundup
Issued by NWS Cleveland, OH

Home | Current Version | Previous Version | Text Only | Print | Product List | Glossary Off
Versions: 1 2 3 4 5 6 7 8 9 10 11 12 13 14 15 16 17 18 19 20 21 22 23 24 25 26 27 28 29 30 31 32 33 34 35 36 37 38 39 40 41 42 43 44 45 46 47 48 49 50

000
ASUS41 KCLE 221310
RWRCLE
OHIO REGIONAL WEATHER ROUNDUP
NATIONAL WEATHER SERVICE CLEVELAND, OH
900 AM EDT TUE JUL 22 2014

NOTE: "FAIR" INDICATES FEW OR NO CLOUDS BELOW 12,000 FEET WITH NO
SIGNIFICANT WEATHER AND/OR OBSTRUCTIONS TO VISIBILITY.

OHZ001>008-015>018-024>027-034-035-043-044-221400-
   NORTHWEST OHIO

CITY           SKY/WX    TMP DP  RH WIND       PRES   REMARKS
DEFIANCE       SUNNY     73  65  75 CALM      30.13S
FINDLAY        SUNNY     74  68  81 CALM      30.12S
TOLEDO EXPRESS SUNNY     74  64  71 SW5       30.12S
TOLEDO EXEC    SUNNY     74  63  68 S7        30.14R
LIMA           SUNNY     75  67  76 S6        30.13S
$$

OHZ009>014-019>023-028>033-038-089-221400-
   NORTHEAST OHIO

CITY           SKY/WX    TMP DP  RH WIND       PRES   REMARKS
CLE-HOPKINS    SUNNY     76  67  73 SW6       30.15S
CLE-LAKEFRONT  SUNNY     76  66  71 S9        30.11F
CUY CO. ARPT   SUNNY     79  70  73 S8        30.15S
LORAIN-ELYRIA  SUNNY     76  66  71 S5        30.15R
ASHTABULA      SUNNY     73  68  84 S7        30.15F
AKRON-CANTON   SUNNY     75  67  76 S5        30.16F
WOOSTER        SUNNY     75  69  81 CALM      30.17S HAZE
MANSFIELD      SUNNY     75  68  78 S3        30.17S
YOUNGSTOWN     SUNNY     75  69  81 S5        30.16S
$$

OHZ042-051>053-060>062-070>072-077>081-221400-
  SOUTHWEST OHIO

CITY           SKY/WX    TMP DP  RH WIND       PRES   REMARKS
CINC-COVINGTON MOSUNNY   78  70  76 CALM      30.14S
CINC-LUNKEN    MOSUNNY   74  69  85 CALM      30.13S
HAMILTON       SUNNY     74  69  85 CALM      30.14S
DAYTON         MOSUNNY   77  66  68 SE6       30.15S
WRIGHT-PAT AFB LGT RAIN  74  68  82 CALM      30.14S
DAYTON GENERAL SUNNY     76  69  79 SE3       30.14R
WILMINGTON     SUNNY     77  69  76 CALM      30.15R
$$

OHZ036-037-039>041-045>050-054>059-063>069-073>076-082>088-221400-
  CENTRAL AND SOUTHEAST OHIO

CITY           SKY/WX    TMP DP  RH WIND       PRES   REMARKS
COLUMBUS       SUNNY     79  68  69 CALM      30.14S
OSU AIRPORT    SUNNY     76  70  82 CALM      30.15R
BOLTON FIELD   SUNNY     75  72  88 CALM      30.16R
RICKENBACK AFB SUNNY     76  67  75 CALM      30.14S
NEWARK         SUNNY     75  68  78 CALM      30.15S
MARION         SUNNY     74  67  78 S8        30.15S HAZE
LANCASTER      SUNNY     75  70  84 S3        30.15S
ZANESVILLE     SUNNY     73  69  87 CALM      30.15F
NEW PHILLY     SUNNY     72  69  90 CALM      30.16S FOG
$$



USA.gov is the U.S. government's official web portal to all federal, state and local government web resources and services.